Powrót do katalogu

COSMOS 2285

AktywnyNawigacjaLEO
NORAD 23189·PAYLOAD·🇷🇺 Russia

Wystrzelony Aug 2, 1994 z Plesetsk Cosmodrome

Loading…

Następne Przeloty (najbliższe 24 godziny)

TLE

ŚwieżeSource: Space-Track

Epoka: Sep 14, 2026, 04:07 UTC

1 23189U 94045A   26257.17189706  .00000021  00000-0  47917-4 0  9991
2 23189  74.0310 326.3505 0026083 304.2548  84.3702 13.72530841608607

Śledź COSMOS 2285 w czasie rzeczywistym z AllMySat

Download on the App Store